Flag for Spain Weather past 2 weeks in Valladolid, Spain

Now
63 °F

Passing clouds.


Feels Like: 63 °F
Forecast: 45 / 69 °F
Wind: 15 mph from East

Location: Valladolid / Villanubla

Current Time: May 23, 2015 at 3:01:29 PM

Latest Report: May 23, 2015 at 2:30 PM


Visibility: N/A

Pressure: 30.15 "Hg

Humidity: 42%

Dew point: 39 °F

Location of ValladolidLocation

Historic Weather in Valladolid — Graph

°F

Valladolid temperature yesterday

Maximum temperature yesterday: 63 °F (at 5:30 PM)
Minimum temperature yesterday: 41 °F (at 7:00 AM)
Average temperature yesterday: 54 °F

Past Weeks' High & Low Weather Summary

 TemperatureHumidityPressure
High90 °F (May 13, 4:00 PM)100% (May 9, 7:00 AM)30.42 "Hg (May 9, 7:00 AM)
Low34 °F (May 20, 7:00 AM)12% (May 13, 4:00 PM)29.86 "Hg (May 18, 8:00 PM)
Average64 °F49%30.21 "Hg
* Reported May 8 1:00 PM — May 23 1:30 PM, Valladolid, Weather by CustomWeather, © 2015

Note: Actual official high and low records may vary slightly from our data, if they occured in-between our weather recording intervals... More about our weather records

Advertising

Valladolid weather history for previous 24 hours

 ConditionsComfort  
Time TempWeatherWind HumidityBarometerVisibility
1:30 PM
Sat, May 23
59 °FPassing clouds.15 mph48%30.15 "HgN/A
1:00 PM57 °FPassing clouds.13 mph51%30.15 "HgN/A
12:30 PM55 °FPassing clouds.15 mph51%30.18 "HgN/A
12:00 PM55 °FPassing clouds.15 mph55%30.18 "HgN/A
11:30 AM55 °FPassing clouds.15 mph55%30.18 "HgN/A
11:00 AM54 °FPassing clouds.17 mph63%30.18 "HgN/A
10:30 AM50 °FPassing clouds.18 mph67%30.18 "HgN/A
10:00 AM50 °FSunny.23 mph67%30.21 "Hg10 mi
9:00 AM46 °FSunny.12 mph76%30.18 "Hg10 mi
8:30 AM43 °FPassing clouds.13 mph81%30.18 "HgN/A
7:30 AM37 °FClear.8 mph93%30.18 "Hg10 mi
7:00 AM37 °FClear.9 mph93%30.18 "Hg10 mi
9:30 PM
Fri, May 22
52 °FSunny.17 mph58%30.21 "Hg10 mi
9:00 PM54 °FSunny.20 mph54%30.21 "Hg10 mi
8:30 PM55 °FSunny.21 mph51%30.21 "Hg10 mi
8:00 PM57 °FSunny.21 mph48%30.21 "Hg10 mi
7:30 PM59 °FSunny.21 mph45%30.21 "Hg10 mi
7:00 PM61 °FPassing clouds.18 mph36%30.21 "HgN/A
6:30 PM61 °FPassing clouds.18 mph36%30.21 "HgN/A
6:00 PM61 °FPassing clouds.20 mph39%30.21 "HgN/A
5:30 PM63 °FPassing clouds.17 mph37%30.21 "HgN/A
5:00 PM61 °FPassing clouds.17 mph36%30.21 "HgN/A
4:30 PM61 °FPassing clouds.20 mph34%30.24 "HgN/A
4:00 PM61 °FPassing clouds.18 mph36%30.24 "HgN/A
3:30 PM61 °FPassing clouds.17 mph42%30.24 "HgN/A
3:00 PM59 °FPassing clouds.17 mph42%30.27 "HgN/A
Weather by CustomWeather, © 2015

See weather overviewHow to use our weather pages